[[{"header":{"parameterUnit":"m.s-1","parameterCategory":2,"la1":30.2991,"la2":30.254,"lo1":-89.0895,"lo2":-89.0444,"dy":0.0017,"dx":0.0017,"nx":28,"ny":28,"refTime":"2024-06-04T09:00:00:Z","depth":"0","parameterNumber":2,"parameterNumberName":"U-component_of_CURRENTS"},"data":[0,0,0,0,0,0,0,0,0,0,0,0,0,0,0,0,0,0,0,0,0,0,0,0,0,0,0,0,0,0,0,0,0,0,0,0,0,0,0,0,0,0,0,0,0,0,0,0,0,0,0,0,0,0,0,0,0,0,0.3334,0.3334,0,0.3349,0.3349,0.3349,0.3326,0.3325,0.3325,0.3324,0.3319,0.332,0.332,0,0,0,0,0,0,0,0,0,0,0,0,0,0.3312,0.3312,0.3334,0.3335,0.3335,0.3349,0.3349,0.3349,0.3326,0.3325,0.3325,0.3324,0.3319,0.332,0.332,0,0,0,0,0,0,0,0,0,0,0,0,0,0.3322,0.3312,0.3334,0.3327,0.3327,0.3349,0.3349,0.3349,0.3326,0.3325,0.3325,0.3324,0.3319,0.332,0.332,0.3341,0,0,0.3322,0.3322,0,0,0,0,0,0,0,0,0.3321,0.3322,0.3328,0.3328,0.3327,0.3337,0.334,0.3346,0.3327,0.3324,0.3324,0.3323,0.3326,0.3326,0.3327,0.3341,0.3341,0.3322,0.3323,0.3323,0.3323,0,0,0,0,0,0,0,0.332,0.3321,0.3337,0.3328,0.3328,0.3333,0.3332,0.3341,0.3327,0.3324,0.3323,0.3329,0.3325,0.3327,0.3327,0.334,0.3322,0.3323,0.3323,0.3323,0.3443,0.3445,0,0,0,0,0,0,0.3323,0.3321,0.3337,0.3338,0.3325,0.3334,0.3333,0.3333,0.3327,0.3327,0.333,0.3328,0.3326,0.3326,0.3327,0.3393,0.3323,0.3323,0.3324,0.344,0.3443,0.3446,0,0,0,0,0,0,0.3322,0.3324,0.3336,0.3332,0.3334,0.3335,0.3334,0.3334,0.3339,0.3332,0.333,0.3336,0.3325,0.3326,0.3352,0.3391,0.3324,0.3324,0.3437,0.3441,0.3445,0.35,0,0,0,0,0,0,0.3322,0.3324,0.3327,0.3332,0.3335,0.3361,0.3336,0.3335,0.3345,0.3342,0.3338,0.3336,0.3325,0.3352,0.3353,0.3391,0.3325,0.3433,0.3439,0.3443,0.3494,0.3505,0.3514,0,0,0,0,0,0.3321,0.3331,0.3326,0.3329,0.3337,0.3363,0.3365,0.336,0.3346,0.3359,0.336,0.3336,0.3387,0.3354,0.3355,0.3394,0.343,0.3437,0.3443,0.349,0.3503,0.3514,0,0,0,0,0,0,0.3321,0.333,0.3325,0.3336,0.3353,0.336,0.3372,0.3368,0.3379,0.3376,0.3361,0.3361,0.3406,0.3398,0.3362,0.345,0.341,0.3417,0.3445,0.3458,0.3468,0.3467,0.3325,0,0,0,0,0,0.3324,0.3334,0.3346,0.3356,0.3366,0.337,0.3379,0.338,0.339,0.3392,0.3391,0.3404,0.3435,0.3441,0.3463,0.3498,0.3502,0.3531,0.3541,0.355,0.3554,0.3614,0.3629,0.3467,0.3467,0.3467,0,0,0.3326,0.3334,0.3338,0.3358,0.3367,0.3391,0.3373,0.3396,0.342,0.3392,0.3423,0.3439,0.3455,0.3503,0.3523,0.3496,0.3598,0.3558,0.3564,0.3564,0.3622,0.3637,0.3651,0.3471,0.3471,0.347,0,0,0.3339,0.3345,0.3357,0.3378,0.3402,0.3413,0.3423,0.3439,0.3451,0.3484,0.3486,0.3529,0.3548,0.3582,0.3598,0.3681,0.3656,0.3688,0.3727,0.3785,0.3798,0.381,0.3826,0.3838,0.3686,0.3686,0.3686,0,0.3339,0.3354,0.3367,0.339,0.3411,0.3425,0.345,0.3473,0.3497,0.3522,0.3502,0.3583,0.3593,0.3672,0.3699,0.3704,0.3711,0.3671,0.3796,0.3808,0.3819,0.3832,0.3845,0.3689,0.3689,0.3688,0.3688,0,0.336,0.3377,0.3392,0.3423,0.3453,0.3481,0.3517,0.3549,0.3562,0.3584,0.366,0.3684,0.3731,0.3752,0.3743,0.3838,0.3809,0.3804,0.3756,0.3838,0.3847,0.386,0.3694,0.3693,0.3692,0.3691,0,0,0.3337,0.3393,0.3396,0.3409,0.3473,0.3488,0.3558,0.3616,0.3655,0.3695,0.3752,0.3821,0.3834,0.3856,0.3868,0.3912,0.3992,0.3884,0.3885,0.3883,0.4089,0.4041,0.405,0.4001,0.4004,0.4006,0.4059,0,0.3344,0.3381,0.3419,0.3458,0.3479,0.3535,0.3591,0.3652,0.3706,0.3766,0.3826,0.3884,0.3875,0.3899,0.3951,0.3993,0.403,0.3976,0.4024,0.4025,0.3961,0.4065,0.3941,0.3977,0.4071,0.4074,0.4075,0,0.3341,0.3369,0.3406,0.3464,0.3479,0.3511,0.3602,0.3658,0.3771,0.3811,0.3897,0.394,0.4038,0.4004,0.4117,0.4079,0.4088,0.4105,0.4107,0.4052,0.4003,0.3916,0.3995,0.3937,0.4094,0.4092,0.4091,0,0.3292,0.3351,0.3375,0.3396,0.3473,0.3505,0.3556,0.3668,0.374,0.3849,0.3917,0.4016,0.4085,0.4132,0.4189,0.4153,0.4291,0.4249,0.4211,0.4206,0.4106,0.4087,0.4121,0.4319,0.4319,0.4319,0.4318,0,0.3273,0.3286,0.3345,0.3353,0.3391,0.3461,0.3533,0.3601,0.3735,0.3821,0.3932,0.4025,0.4124,0.422,0.4226,0.4275,0.4332,0.424,0.4236,0.412,0.4104,0.405,0.4013,0.4321,0.432,0.432,0.4319,0,0.321,0.3251,0.3274,0.3343,0.3364,0.339,0.3518,0.3573,0.3709,0.3834,0.3879,0.4067,0.4184,0.4273,0.4362,0.4336,0.4259,0.4363,0.4204,0.418,0.4053,0.4022,0.3834,0.3731,0.4317,0.4316,0.4316,0,0.3181,0.3184,0.3247,0.326,0.3287,0.3347,0.3392,0.3533,0.3609,0.385,0.3898,0.409,0.4194,0.4334,0.4336,0.4358,0.4239,0.423,0.4146,0.4054,0.4018,0.3809,0.3721,0.4027,0.4025,0.4022,0.402,0,0.3124,0.3144,0.3164,0.3197,0.3227,0.3276,0.3354,0.3416,0.3586,0.3705,0.3865,0.3985,0.4166,0.4176,0.4242,0.4223,0.4039,0.4181,0.4144,0.3852,0.3569,0.3464,0.396,0.4,0.4002,0.4004,0.4005,0.4006,0.3075,0.3075,0.3099,0.3116,0.3148,0.3172,0.3175,0.3277,0.3375,0.3517,0.3716,0.3834,0.4002,0.4092,0.4056,0.3961,0.3889,0.3849,0.3836,0.3643,0.3492,0.3929,0.3931,0.3933,0.3934,0.3936,0.3937,0,0.3,0.3004,0.3018,0.302,0.2999,0.306,0.3112,0.3095,0.313,0.3323,0.3444,0.3629,0.3676,0.3776,0.3792,0.3669,0.3449,0.3566,0.3273,0.3219,0.3684,0.3626,0.3492,0.3492,0.3492,0.3492,0.3492,0.3492,0.2962,0.2932,0.2931,0.2856,0.2852,0.2787,0.2782,0.2782,0.2871,0.297,0.3085,0.3238,0.3507,0.3612,0.3548,0.3457,0.3211,0.3022,0.3018,0.3414,0.3439,0.3462,0.3402,0.3223,0.3223,0.2406,0.2401,0.2396]},{"header":{"parameterUnit":"m.s-1","parameterCategory":2,"la1":30.2991,"la2":30.254,"lo1":-89.0895,"lo2":-89.0444,"dy":0.0017,"dx":0.0017,"nx":28,"ny":28,"refTime":"2024-06-04T09:00:00:Z","depth":"0","parameterNumber":3,"parameterNumberName":"V-component_of_CURRENTS"},"data":[0,0,0,0,0,0,0,0,0,0,0,0,0,0,0,0,0,0,0,0,0,0,0,0,0,0,0,0,0,0,0,0,0,0,0,0,0,0,0,0,0,0,0,0,0,0,0,0,0,0,0,0,0,0,0,0,0,0,0.0306,0.0305,0,0.0247,0.0246,0.0245,0.0204,0.0204,0.0203,0.0203,0.0135,0.0133,0.0131,0,0,0,0,0,0,0,0,0,0,0,0,0,0.0335,0.0335,0.0306,0.0305,0.0305,0.0247,0.0246,0.0245,0.0204,0.0204,0.0203,0.0203,0.0135,0.0133,0.0131,0,0,0,0,0,0,0,0,0,0,0,0,0,0.0302,0.0335,0.0306,0.0278,0.0275,0.0247,0.0246,0.0244,0.0204,0.0204,0.0203,0.0203,0.0136,0.0133,0.0131,0.0121,0,0,0.0123,0.0122,0,0,0,0,0,0,0,0,0.0304,0.0301,0.0283,0.028,0.0277,0.0234,0.0231,0.0203,0.0204,0.0229,0.0203,0.0203,0.0168,0.0163,0.015,0.0118,0.0115,0.0123,0.0122,0.0121,0.012,0,0,0,0,0,0,0,0.0307,0.0303,0.0281,0.0282,0.0279,0.0252,0.0248,0.0225,0.02,0.0227,0.0224,0.022,0.0166,0.0153,0.0148,0.0114,0.0123,0.0121,0.012,0.0119,0.0088,0.0089,0,0,0,0,0,0,0.032,0.0306,0.0283,0.0279,0.0292,0.0252,0.0247,0.0246,0.02,0.0193,0.0221,0.0219,0.0157,0.0151,0.0146,0.0162,0.0121,0.0118,0.0117,0.0087,0.0088,0.0089,0,0,0,0,0,0,0.0321,0.0318,0.0285,0.0292,0.0286,0.0253,0.0252,0.0246,0.0237,0.0195,0.0188,0.022,0.0157,0.0149,0.0137,0.0158,0.0117,0.0115,0.0087,0.0088,0.0089,0.0175,0,0,0,0,0,0,0.0322,0.0319,0.0323,0.0293,0.0286,0.0279,0.0252,0.0245,0.0235,0.0232,0.0192,0.0185,0.0156,0.0141,0.0135,0.0154,0.0113,0.0086,0.0087,0.0088,0.0172,0.0179,0.0186,0,0,0,0,0,0.0323,0.0335,0.0324,0.0321,0.0293,0.028,0.0274,0.0248,0.0236,0.0238,0.0213,0.0186,0.0145,0.014,0.0132,0.0151,0.0085,0.0087,0.0088,0.0169,0.0178,0.0186,0,0,0,0,0,0,0.0348,0.0331,0.0318,0.0323,0.0307,0.0274,0.0274,0.0255,0.0236,0.0235,0.0194,0.0186,0.0182,0.0154,0.0149,0.0145,0.0111,0.0111,0.0175,0.0183,0.019,0.0215,0.0111,0,0,0,0,0,0.0357,0.0362,0.0337,0.0343,0.0338,0.0307,0.0298,0.0282,0.0261,0.0252,0.0224,0.0198,0.0181,0.0173,0.0149,0.0148,0.0118,0.0154,0.0162,0.0168,0.0183,0.0159,0.0165,0.0094,0.0094,0.0094,0,0,0.0367,0.036,0.0362,0.0349,0.0334,0.034,0.0301,0.0297,0.0307,0.0248,0.0253,0.022,0.0186,0.0185,0.0181,0.0165,0.017,0.017,0.0176,0.0187,0.0161,0.0168,0.0174,0.0095,0.0095,0.0095,0,0,0.0399,0.0387,0.0403,0.0396,0.0383,0.0368,0.0372,0.0345,0.0338,0.0335,0.0299,0.0284,0.0252,0.0237,0.0224,0.0256,0.0207,0.0243,0.0303,0.0279,0.0285,0.029,0.0254,0.0255,0.0249,0.0249,0.0249,0,0.0413,0.0432,0.0405,0.0421,0.0427,0.0388,0.0411,0.0398,0.0372,0.0378,0.035,0.0317,0.0282,0.0292,0.03,0.0275,0.0245,0.0275,0.029,0.0294,0.0297,0.0259,0.0259,0.0254,0.0253,0.0253,0.0252,0,0.0456,0.0472,0.0483,0.0495,0.0495,0.0509,0.0492,0.0496,0.048,0.0465,0.0465,0.0415,0.04,0.0382,0.035,0.0363,0.0328,0.0301,0.0272,0.031,0.0267,0.0266,0.026,0.0258,0.0257,0.0256,0,0,0.0493,0.0512,0.0518,0.0543,0.0539,0.055,0.0572,0.0585,0.0613,0.0574,0.0605,0.0561,0.0528,0.0512,0.0465,0.0441,0.0431,0.0387,0.0384,0.0359,0.0369,0.0348,0.0343,0.0404,0.0404,0.0405,0.0326,0,0.054,0.0594,0.0587,0.0644,0.0674,0.0657,0.0689,0.0694,0.0683,0.07,0.0651,0.0654,0.0579,0.0576,0.0541,0.0464,0.0432,0.0454,0.0329,0.0326,0.0309,0.0343,0.0388,0.0323,0.0324,0.0324,0.0324,0,0.0591,0.0624,0.0688,0.074,0.0752,0.0776,0.0826,0.0851,0.0856,0.0851,0.0833,0.0785,0.0753,0.0682,0.057,0.0586,0.0489,0.0417,0.0412,0.0366,0.0303,0.0285,0.0319,0.0202,0.0321,0.0321,0.0321,0,0.0645,0.07,0.076,0.0775,0.082,0.0851,0.0877,0.0896,0.0946,0.0946,0.0979,0.0906,0.0896,0.0768,0.0612,0.0593,0.0481,0.0433,0.032,0.0316,0.0318,0.0314,0.0235,0.0355,0.0356,0.0356,0.0356,0,0.0705,0.0753,0.0792,0.0825,0.0917,0.0918,0.101,0.1023,0.1067,0.115,0.1064,0.1106,0.0919,0.0828,0.066,0.0493,0.0513,0.0343,0.0304,0.0348,0.0348,0.0215,0.0116,0.0353,0.0353,0.0354,0.0355,0,0.0755,0.0778,0.0854,0.0914,0.0944,0.1009,0.1107,0.1174,0.12,0.1304,0.1317,0.1264,0.1151,0.0944,0.0741,0.0577,0.0323,0.0332,0.0389,0.0359,0.0143,0.0047,-0.0099,-0.0178,0.02,0.0199,0.0199,0,0.0784,0.0829,0.0923,0.0981,0.101,0.1107,0.1188,0.1242,0.1324,0.1413,0.1477,0.1402,0.1388,0.1071,0.076,0.0466,0.0308,0.0298,0.027,0.0152,0.0016,-0.0045,-0.0105,0.0296,0.0296,0.0297,0.0297,0,0.0844,0.0875,0.0939,0.1061,0.115,0.127,0.138,0.1473,0.1564,0.1665,0.1768,0.1765,0.1475,0.1221,0.0803,0.0578,0.0216,0.0291,0.0164,0.0086,0.0021,-0.0078,0.031,0.0298,0.0298,0.0298,0.0297,0.0297,0.0888,0.0945,0.1032,0.1151,0.1264,0.1416,0.1531,0.1671,0.1847,0.2016,0.1986,0.205,0.1671,0.1123,0.0775,0.0242,0.0209,0.011,0.0002,-0.0048,-0.0114,0.0272,0.0218,0.0218,0.0217,0.0217,0.0217,0,0.0945,0.101,0.1117,0.1262,0.1394,0.1449,0.1656,0.1794,0.2023,0.2196,0.2298,0.2213,0.1708,0.1175,0.0438,0.0051,-0.0101,-0.015,-0.0213,-0.0266,0.0089,0.0107,0.0036,0.0036,0.0036,0.0037,0.0037,0.0037,0.0974,0.1078,0.1134,0.1348,0.1457,0.1657,0.1786,0.2008,0.2189,0.2454,0.2567,0.2607,0.23,0.0924,0.0023,-0.0217,-0.0469,-0.0514,-0.0672,-0.0409,-0.0391,-0.0375,-0.0377,-0.0549,-0.0549,-0.0938,-0.0942,-0.0945]}],[{"header":{"parameterUnit":"m.s-1","parameterCategory":2,"la1":30.2991,"la2":30.254,"lo1":-89.0895,"lo2":-89.0444,"dy":0.0017,"dx":0.0017,"nx":28,"ny":28,"refTime":"2024-06-04T09:00:00:Z","depth":"2","parameterNumber":2,"parameterNumberName":"U-component_of_CURRENTS"},"data":[0,0,0,0,0,0,0,0,0,0,0,0,0,0,0,0,0,0,0,0,0,0,0,0,0,0,0,0,0,0,0,0,0,0,0,0,0,0,0,0,0,0,0,0,0,0,0,0,0,0,0,0,0,0,0,0,0,0,0.3212,0.3213,0,0.3223,0.3223,0.3223,0.3206,0.3205,0.3205,0.3205,0.3204,0.3205,0.3205,0,0,0,0,0,0,0,0,0,0,0,0,0,0.3196,0.3196,0.3212,0.3213,0.3213,0.3223,0.3223,0.3223,0.3206,0.3205,0.3205,0.3204,0.3204,0.3205,0.3205,0,0,0,0,0,0,0,0,0,0,0,0,0,0.3202,0.3196,0.3212,0.3208,0.3207,0.3223,0.3223,0.3222,0.3206,0.3205,0.3205,0.3204,0.3204,0.3205,0.3205,0.3219,0,0,0.3207,0.3207,0,0,0,0,0,0,0,0,0.3202,0.3202,0.3208,0.3208,0.3208,0.3214,0.3217,0.3222,0.3206,0.3204,0.3205,0.3204,0.3209,0.3209,0.3209,0.3219,0.3219,0.3207,0.3207,0.3207,0.3207,0,0,0,0,0,0,0,0.3201,0.3202,0.3214,0.3208,0.3208,0.3211,0.3211,0.3218,0.3207,0.3204,0.3203,0.3209,0.3208,0.3208,0.3209,0.3219,0.3207,0.3207,0.3207,0.3208,0.3315,0.3318,0,0,0,0,0,0,0.3205,0.3201,0.3214,0.3214,0.3206,0.3212,0.3212,0.3211,0.3207,0.3207,0.3209,0.3208,0.3208,0.3208,0.3208,0.3275,0.3207,0.3208,0.3208,0.3313,0.3316,0.3319,0,0,0,0,0,0,0.3204,0.3205,0.3213,0.3211,0.3212,0.3213,0.3212,0.3211,0.3219,0.3212,0.321,0.3219,0.3207,0.3208,0.3234,0.3273,0.3208,0.3208,0.331,0.3314,0.3317,0.3376,0,0,0,0,0,0,0.3203,0.3205,0.3209,0.3211,0.3212,0.3236,0.3213,0.3212,0.3224,0.3222,0.322,0.3218,0.3207,0.3233,0.3234,0.3272,0.3209,0.3307,0.3312,0.3316,0.337,0.3381,0.339,0,0,0,0,0,0.3203,0.3212,0.3209,0.3211,0.3216,0.3237,0.3239,0.3236,0.3225,0.3238,0.324,0.3219,0.3265,0.3235,0.3236,0.3275,0.3304,0.331,0.3316,0.3366,0.3379,0.339,0,0,0,0,0,0,0.3206,0.3212,0.3208,0.3218,0.3232,0.3235,0.3248,0.3245,0.3255,0.3256,0.3241,0.3241,0.3286,0.3276,0.3244,0.3325,0.3286,0.3292,0.3324,0.3336,0.3346,0.3346,0.3209,0,0,0,0,0,0.3209,0.3218,0.3227,0.3237,0.3246,0.3248,0.3257,0.3259,0.3267,0.327,0.327,0.3282,0.331,0.3317,0.3337,0.3369,0.3373,0.3401,0.3411,0.3419,0.3424,0.3479,0.3494,0.3338,0.3338,0.3338,0,0,0.3212,0.3219,0.3222,0.3239,0.3247,0.3268,0.3252,0.3274,0.3296,0.327,0.3301,0.3317,0.333,0.3375,0.3394,0.3368,0.3466,0.3427,0.3433,0.3433,0.3487,0.3502,0.3515,0.3342,0.3341,0.334,0,0,0.3224,0.3231,0.3242,0.326,0.3283,0.3292,0.3302,0.3316,0.3329,0.336,0.3362,0.3403,0.3422,0.3451,0.3465,0.3543,0.3522,0.3551,0.359,0.3645,0.3658,0.3669,0.3687,0.37,0.3549,0.3549,0.3549,0,0.3227,0.3239,0.3251,0.3271,0.3291,0.3304,0.3328,0.3349,0.3371,0.3395,0.338,0.3456,0.3464,0.3536,0.3563,0.3565,0.3575,0.3538,0.3656,0.3667,0.3678,0.3694,0.3707,0.3552,0.3552,0.3552,0.3551,0,0.3245,0.3261,0.3275,0.3302,0.333,0.3356,0.3389,0.3421,0.3436,0.3457,0.353,0.3552,0.3596,0.3616,0.3606,0.3696,0.3672,0.3665,0.3619,0.3696,0.3709,0.3721,0.3557,0.3556,0.3555,0.3554,0,0,0.3225,0.3275,0.3279,0.329,0.335,0.3363,0.3429,0.3483,0.352,0.3561,0.3617,0.3681,0.3696,0.3716,0.3727,0.3768,0.3849,0.3744,0.3745,0.3749,0.3945,0.3891,0.3898,0.3857,0.386,0.3862,0.392,0,0.3232,0.3264,0.3299,0.3334,0.3353,0.3406,0.3458,0.3516,0.3569,0.3628,0.3685,0.3741,0.3735,0.3761,0.381,0.3848,0.3885,0.3832,0.3881,0.3882,0.3814,0.3913,0.3586,0.3608,0.3932,0.3934,0.3936,0,0.3228,0.3252,0.3286,0.3339,0.3353,0.3383,0.3471,0.3523,0.3631,0.3672,0.3757,0.38,0.3892,0.3861,0.397,0.3934,0.3946,0.3961,0.3964,0.3901,0.3852,0.3587,0.3618,0.3956,0.3954,0.3953,0.3951,0,0.3182,0.3236,0.3258,0.3277,0.3348,0.338,0.3428,0.3536,0.3604,0.3711,0.3778,0.3873,0.3942,0.3987,0.4042,0.4009,0.414,0.4099,0.4059,0.4053,0.3779,0.3745,0.4169,0.4169,0.4169,0.4169,0.4168,0,0.3163,0.3176,0.3231,0.3238,0.3274,0.3341,0.3411,0.3477,0.3606,0.3688,0.3796,0.3884,0.398,0.4072,0.4078,0.4122,0.418,0.4087,0.4082,0.379,0.3759,0.406,0.4046,0.4171,0.417,0.417,0.4169,0,0.3105,0.3143,0.3164,0.3229,0.325,0.3276,0.34,0.3452,0.3585,0.3705,0.3749,0.3927,0.4038,0.4123,0.4208,0.4181,0.4212,0.4203,0.3845,0.3798,0.4067,0.4057,0.4157,0.4156,0.4155,0.4155,0.4154,0,0.3077,0.3079,0.3139,0.3152,0.3178,0.3238,0.3282,0.3418,0.3489,0.3719,0.3763,0.3947,0.4041,0.4169,0.4139,0.4153,0.4223,0.3852,0.3742,0.409,0.4075,0.4065,0.4056,0.3387,0.338,0.3374,0.337,0,0.3022,0.3042,0.3059,0.3092,0.3122,0.3167,0.3243,0.33,0.3462,0.3574,0.3721,0.383,0.3975,0.3861,0.391,0.3864,0.3824,0.3741,0.4211,0.3459,0.3374,0.3356,0.337,0.332,0.3325,0.3329,0.3331,0.3333,0.2975,0.2975,0.2997,0.3014,0.3046,0.3063,0.3065,0.3154,0.3243,0.3354,0.3542,0.3576,0.3632,0.3548,0.3441,0.3347,0.3615,0.3428,0.344,0.346,0.3379,0.3299,0.3213,0.3217,0.3221,0.3224,0.3227,0,0.2901,0.2906,0.2919,0.2919,0.2894,0.2957,0.3001,0.2964,0.2985,0.3117,0.3204,0.2984,0.2938,0.2984,0.2775,0.2787,0.2704,0.2659,0.2511,0.2566,0.2614,0.2483,0.2084,0.208,0.2076,0.2072,0,0,0.2863,0.283,0.2827,0.2751,0.2751,0.2678,0.267,0.2635,0.2669,0.2637,0.2622,0.2834,0.2935,0.2475,0.2419,0.2215,0.2363,0.2121,0.3051,0.2935,0.2977,0.3085,0.2952,0,0,0,0,0]},{"header":{"parameterUnit":"m.s-1","parameterCategory":2,"la1":30.2991,"la2":30.254,"lo1":-89.0895,"lo2":-89.0444,"dy":0.0017,"dx":0.0017,"nx":28,"ny":28,"refTime":"2024-06-04T09:00:00:Z","depth":"2","parameterNumber":3,"parameterNumberName":"V-component_of_CURRENTS"},"data":[0,0,0,0,0,0,0,0,0,0,0,0,0,0,0,0,0,0,0,0,0,0,0,0,0,0,0,0,0,0,0,0,0,0,0,0,0,0,0,0,0,0,0,0,0,0,0,0,0,0,0,0,0,0,0,0,0,0,0.0225,0.0224,0,0.0167,0.0166,0.0166,0.0127,0.0127,0.0127,0.0127,0.0062,0.0061,0.0059,0,0,0,0,0,0,0,0,0,0,0,0,0,0.0254,0.0254,0.0225,0.0224,0.0224,0.0167,0.0166,0.0165,0.0127,0.0127,0.0127,0.0127,0.0063,0.0061,0.0059,0,0,0,0,0,0,0,0,0,0,0,0,0,0.0222,0.0254,0.0225,0.0199,0.0196,0.0167,0.0166,0.0165,0.0127,0.0127,0.0127,0.0127,0.0063,0.0061,0.0059,0.0047,0,0,0.0051,0.005,0,0,0,0,0,0,0,0,0.0224,0.0221,0.0204,0.0201,0.0198,0.0156,0.0153,0.0126,0.0128,0.0152,0.0127,0.0127,0.0094,0.0089,0.0076,0.0044,0.0041,0.0051,0.005,0.0048,0.0048,0,0,0,0,0,0,0,0.0227,0.0223,0.0201,0.0203,0.0199,0.0174,0.0169,0.0147,0.0123,0.015,0.0147,0.0143,0.0092,0.0079,0.0075,0.004,0.0051,0.0049,0.0047,0.0046,0.0016,0.0016,0,0,0,0,0,0,0.0239,0.0226,0.0202,0.0199,0.0212,0.0174,0.0169,0.0168,0.0124,0.0117,0.0144,0.0142,0.0083,0.0078,0.0072,0.0088,0.0048,0.0046,0.0045,0.0015,0.0016,0.0016,0,0,0,0,0,0,0.024,0.0238,0.0205,0.0212,0.0206,0.0174,0.0173,0.0167,0.016,0.0119,0.0112,0.0143,0.0083,0.0076,0.0064,0.0084,0.0045,0.0043,0.0014,0.0015,0.0016,0.01,0,0,0,0,0,0,0.0241,0.0239,0.0243,0.0213,0.0206,0.0199,0.0173,0.0166,0.0158,0.0155,0.0117,0.011,0.0082,0.0068,0.0062,0.008,0.0041,0.0013,0.0015,0.0016,0.0096,0.0104,0.011,0,0,0,0,0,0.0243,0.0253,0.0244,0.0241,0.0213,0.0199,0.0194,0.0169,0.0158,0.016,0.0137,0.0112,0.0071,0.0067,0.0059,0.0078,0.0013,0.0014,0.0016,0.0093,0.0102,0.011,0,0,0,0,0,0,0.0267,0.025,0.0238,0.0243,0.0227,0.0194,0.0194,0.0176,0.0158,0.0158,0.0119,0.0111,0.0108,0.008,0.0076,0.0071,0.0038,0.0038,0.01,0.0108,0.0114,0.0138,0.0039,0,0,0,0,0,0.0276,0.0281,0.0256,0.0261,0.0256,0.0227,0.0218,0.0203,0.0183,0.0174,0.0148,0.0123,0.0106,0.0098,0.0075,0.0073,0.0044,0.0079,0.0086,0.0092,0.0106,0.0081,0.0087,0.0021,0.0021,0.0021,0,0,0.0286,0.0278,0.0281,0.0267,0.0253,0.0259,0.0221,0.0218,0.0227,0.0171,0.0176,0.0145,0.011,0.0109,0.0105,0.009,0.0093,0.0094,0.0099,0.011,0.0083,0.009,0.0095,0.0022,0.0022,0.0022,0,0,0.0316,0.0305,0.0321,0.0314,0.0301,0.0286,0.029,0.0264,0.0257,0.0255,0.022,0.0206,0.0175,0.0159,0.0146,0.0176,0.0129,0.0164,0.0221,0.0197,0.0202,0.0207,0.0171,0.0172,0.017,0.017,0.017,0,0.0331,0.0348,0.0323,0.0337,0.0343,0.0305,0.0328,0.0315,0.029,0.0296,0.027,0.0237,0.0203,0.021,0.0218,0.0194,0.0165,0.0195,0.0207,0.0211,0.0214,0.0176,0.0176,0.0174,0.0174,0.0173,0.0173,0,0.0372,0.0387,0.0398,0.0408,0.0408,0.0422,0.0405,0.0409,0.0395,0.038,0.0379,0.0331,0.0315,0.0297,0.0267,0.0277,0.0244,0.0217,0.019,0.0226,0.0183,0.0182,0.018,0.0179,0.0177,0.0176,0,0,0.0409,0.0425,0.0432,0.0455,0.0451,0.0462,0.0482,0.0494,0.0521,0.0484,0.0512,0.0469,0.0438,0.0421,0.0376,0.0351,0.034,0.03,0.0296,0.0272,0.0277,0.0257,0.0252,0.0314,0.0314,0.0314,0.0237,0,0.0454,0.0504,0.0497,0.0552,0.058,0.0564,0.0594,0.0598,0.0588,0.0603,0.0555,0.0558,0.0486,0.0484,0.0448,0.0372,0.034,0.0363,0.024,0.0237,0.022,0.0251,0.0256,0.0188,0.0234,0.0234,0.0234,0,0.0503,0.0534,0.0595,0.0644,0.0656,0.0679,0.0727,0.075,0.0753,0.0749,0.073,0.0684,0.0651,0.0583,0.0472,0.0488,0.0395,0.0324,0.0319,0.0273,0.0214,0.016,0.0182,0.023,0.023,0.0231,0.0231,0,0.0556,0.0607,0.0666,0.0679,0.0722,0.0753,0.0778,0.0795,0.0842,0.0841,0.0871,0.0799,0.0789,0.0664,0.0511,0.0494,0.038,0.0335,0.0225,0.0222,0.019,0.0184,0.0258,0.0258,0.0259,0.0259,0.0259,0,0.0614,0.066,0.0697,0.0729,0.0818,0.0818,0.0907,0.092,0.096,0.1038,0.0955,0.0992,0.081,0.0719,0.0556,0.0392,0.0411,0.0247,0.0209,0.0218,0.0215,0.0223,0.0219,0.0256,0.0257,0.0257,0.0258,0,0.0663,0.0684,0.0757,0.0815,0.0845,0.0909,0.1003,0.1067,0.1091,0.1189,0.1201,0.1144,0.1032,0.083,0.063,0.0472,0.03,0.0232,0.0249,0.0216,0.0142,0.0144,0.0107,0.0106,0.0105,0.0104,0.0103,0,0.0692,0.0735,0.0826,0.0882,0.0911,0.1006,0.1084,0.1136,0.1212,0.1293,0.1352,0.1275,0.1253,0.0941,0.0636,0.0349,0.0307,0.0156,0.0126,0.0164,0.013,0.0134,0.0137,0.0105,0.0105,0.0104,0.0104,0,0.075,0.078,0.0842,0.0962,0.1048,0.1164,0.127,0.1357,0.1442,0.1534,0.1625,0.1613,0.1323,0.1038,0.0631,0.0422,0.02,0.0138,0.018,0.0151,0.0158,0.0126,0.013,0.0099,0.0099,0.01,0.01,0.01,0.0794,0.0849,0.0934,0.105,0.116,0.1305,0.1416,0.1541,0.1703,0.1836,0.1809,0.1787,0.1451,0.0934,0.0573,0.0173,0.0204,0.0051,0.0054,0.0058,0.008,0.0086,0.0016,0.0016,0.0016,0.0016,0.0016,0,0.0849,0.0913,0.1016,0.1157,0.1283,0.134,0.1535,0.1647,0.1853,0.1953,0.2024,0.1694,0.1371,0.0969,0.0391,0.0066,0.0025,-0.0061,-0.0034,-0.0027,-0.0021,-0.0003,-0.0089,-0.009,-0.0091,-0.0092,0,0,0.0877,0.0977,0.1029,0.1235,0.1344,0.1532,0.1654,0.1825,0.1938,0.2045,0.2026,0.1954,0.1491,0.1051,0.0594,0.0258,0.0188,0.0176,0.0295,0.039,0.04,0.0078,0.0119,0,0,0,0,0]}],[{"header":{"parameterUnit":"m.s-1","parameterCategory":2,"la1":30.2991,"la2":30.254,"lo1":-89.0895,"lo2":-89.0444,"dy":0.0017,"dx":0.0017,"nx":28,"ny":28,"refTime":"2024-06-04T09:00:00:Z","depth":"4","parameterNumber":2,"parameterNumberName":"U-component_of_CURRENTS"},"data":[0,0,0,0,0,0,0,0,0,0,0,0,0,0,0,0,0,0,0,0,0,0,0,0,0,0,0,0,0,0,0,0,0,0,0,0,0,0,0,0,0,0,0,0,0,0,0,0,0,0,0,0,0,0,0,0,0,0,0.2142,0.2143,0,0.2189,0.219,0.219,0.2245,0.2246,0.2247,0.2248,0.2335,0.2336,0.2338,0,0,0,0,0,0,0,0,0,0,0,0,0,0.2086,0.2086,0.2142,0.2143,0.2144,0.2189,0.219,0.219,0.2244,0.2246,0.2247,0.2248,0.2335,0.2336,0.2338,0,0,0,0,0,0,0,0,0,0,0,0,0,0.2117,0.2086,0.2142,0.2178,0.2182,0.2189,0.219,0.219,0.2244,0.2246,0.2247,0.2249,0.2334,0.2336,0.2338,0.232,0,0,0.2345,0.2345,0,0,0,0,0,0,0,0,0.2115,0.2119,0.2172,0.2175,0.218,0.2215,0.2202,0.2237,0.2244,0.2218,0.2248,0.2249,0.2299,0.2304,0.2306,0.2325,0.2328,0.2345,0.2346,0.2347,0.2347,0,0,0,0,0,0,0,0.2113,0.2117,0.2159,0.2172,0.2177,0.2187,0.2193,0.2208,0.2248,0.2221,0.2225,0.2233,0.2301,0.2303,0.2308,0.233,0.2345,0.2346,0.2348,0.2349,0.2488,0.2491,0,0,0,0,0,0,0.2111,0.2115,0.2157,0.216,0.2153,0.2187,0.2194,0.22,0.2248,0.2257,0.2232,0.2236,0.2299,0.2306,0.2312,0.2424,0.2347,0.2349,0.235,0.2486,0.2489,0.2492,0,0,0,0,0,0,0.2109,0.2114,0.2155,0.2141,0.2147,0.2187,0.2193,0.22,0.2249,0.2256,0.2266,0.2279,0.2301,0.2309,0.2372,0.2423,0.235,0.2352,0.2483,0.2487,0.249,0.2565,0,0,0,0,0,0,0.2107,0.2113,0.2139,0.214,0.2148,0.2192,0.2192,0.22,0.225,0.2256,0.2299,0.2306,0.2303,0.2369,0.2374,0.2425,0.2353,0.248,0.2485,0.2489,0.256,0.2571,0.2581,0,0,0,0,0,0.2105,0.2127,0.214,0.2147,0.2175,0.2194,0.2199,0.223,0.2251,0.2279,0.2315,0.2307,0.2402,0.2372,0.2378,0.243,0.2478,0.2483,0.2489,0.2555,0.2569,0.258,0,0,0,0,0,0,0.2117,0.2134,0.2149,0.2177,0.2201,0.2205,0.224,0.2255,0.2303,0.2327,0.2331,0.2341,0.2419,0.2414,0.2381,0.2486,0.2441,0.2448,0.249,0.2503,0.2513,0.2519,0.2355,0,0,0,0,0,0.213,0.2157,0.2169,0.22,0.2215,0.2236,0.2257,0.2278,0.2307,0.2332,0.2362,0.2399,0.2436,0.2463,0.2492,0.2542,0.2543,0.2582,0.2593,0.2602,0.2612,0.2664,0.268,0.251,0.251,0.251,0,0,0.2145,0.216,0.2178,0.2206,0.2229,0.2255,0.2254,0.2301,0.2336,0.2333,0.2411,0.2441,0.246,0.2523,0.2557,0.2531,0.2651,0.2609,0.2616,0.2622,0.2671,0.2688,0.2702,0.2514,0.2513,0.2512,0,0,0.2168,0.2203,0.2226,0.225,0.2293,0.2304,0.2328,0.2361,0.2399,0.2461,0.2478,0.2541,0.2591,0.2616,0.2632,0.2718,0.2709,0.2737,0.2792,0.2843,0.2857,0.2869,0.2887,0.2901,0.2739,0.2739,0.2739,0,0.219,0.2213,0.2239,0.2265,0.2295,0.2331,0.2363,0.2398,0.2454,0.2493,0.2505,0.2614,0.2633,0.2705,0.2741,0.2742,0.2761,0.2738,0.2856,0.2868,0.2879,0.2895,0.2909,0.2743,0.2743,0.2742,0.2742,0,0.2208,0.2249,0.227,0.2314,0.2351,0.239,0.2433,0.2492,0.2546,0.2578,0.2685,0.2719,0.2784,0.2804,0.28,0.2897,0.2881,0.2864,0.2819,0.2901,0.2912,0.2925,0.2749,0.2748,0.2747,0.2745,0,0,0.2194,0.2268,0.2281,0.2309,0.2385,0.2405,0.249,0.2558,0.2618,0.2697,0.2777,0.2857,0.2895,0.2916,0.2932,0.2976,0.3069,0.2965,0.2965,0.2974,0.3173,0.2962,0.2956,0.3081,0.3084,0.3087,0.3145,0,0.2205,0.2255,0.2299,0.2362,0.2389,0.2463,0.2528,0.2606,0.2685,0.2772,0.2842,0.2926,0.2931,0.298,0.3032,0.3067,0.311,0.3054,0.3099,0.31,0.2896,0.2966,0.3096,0.3155,0.3158,0.316,0.3161,0,0.2195,0.2234,0.2296,0.2379,0.2401,0.2456,0.2574,0.2641,0.2771,0.2836,0.2945,0.3002,0.3108,0.3089,0.3201,0.3172,0.3189,0.3199,0.3201,0.2987,0.2914,0.3059,0.3184,0.3183,0.3181,0.3179,0.3178,0,0.2138,0.2225,0.2277,0.2307,0.2409,0.2472,0.2544,0.2673,0.275,0.2896,0.2975,0.309,0.3174,0.3227,0.3277,0.3257,0.3373,0.3336,0.3157,0.3142,0.328,0.3266,0.3409,0.3409,0.3408,0.3408,0.3408,0,0.21,0.2144,0.2262,0.2285,0.2361,0.2452,0.256,0.2647,0.2796,0.2879,0.3016,0.3093,0.3222,0.3303,0.3315,0.3275,0.341,0.3176,0.3149,0.3309,0.3298,0.3288,0.3274,0.341,0.341,0.3409,0.3409,0,0.2019,0.2098,0.2161,0.2288,0.2335,0.2396,0.2567,0.2631,0.2791,0.2912,0.297,0.3141,0.3226,0.3317,0.3398,0.3304,0.3291,0.3243,0.3412,0.3393,0.3014,0.3003,0.3031,0.3024,0.3019,0.3014,0.301,0,0.1975,0.2002,0.2149,0.2194,0.2262,0.2374,0.2443,0.2611,0.2678,0.2906,0.2936,0.3104,0.3187,0.3134,0.3236,0.3232,0.3196,0.3158,0.3076,0.3007,0.2979,0.2977,0.2974,0.3,0.2999,0.2997,0.2996,0,0.189,0.1967,0.2021,0.2117,0.22,0.2274,0.2388,0.2424,0.2603,0.2782,0.2826,0.287,0.2957,0.2996,0.3023,0.3015,0.316,0.3096,0.3107,0.303,0.297,0.2948,0.2952,0.2976,0.2979,0.2981,0.2982,0,0.1837,0.1857,0.1944,0.2009,0.2106,0.2131,0.2213,0.2273,0.2362,0.2595,0.2602,0.2768,0.2924,0.2885,0.2909,0.2886,0.283,0.2715,0.2744,0.2768,0.2653,0.2537,0.2393,0,0,0,0,0,0.1766,0.1768,0.1822,0.1874,0.1962,0.2016,0.2145,0.2227,0.2404,0.2364,0.2474,0.2533,0.2567,0.2654,0.2575,0.2795,0.2848,0.2689,0.2732,0.2865,0.2888,0.2776,0,0,0,0,0,0,0.1716,0.1763,0.1771,0.1743,0.1753,0.1825,0.19,0.2022,0.2003,0.2196,0.2229,0.237,0.2446,0.2587,0.2526,0.255,0.2519,0.2793,0.2786,0.2852,0.2873,0.2891,0.2784,0,0,0,0,0]},{"header":{"parameterUnit":"m.s-1","parameterCategory":2,"la1":30.2991,"la2":30.254,"lo1":-89.0895,"lo2":-89.0444,"dy":0.0017,"dx":0.0017,"nx":28,"ny":28,"refTime":"2024-06-04T09:00:00:Z","depth":"4","parameterNumber":3,"parameterNumberName":"V-component_of_CURRENTS"},"data":[0,0,0,0,0,0,0,0,0,0,0,0,0,0,0,0,0,0,0,0,0,0,0,0,0,0,0,0,0,0,0,0,0,0,0,0,0,0,0,0,0,0,0,0,0,0,0,0,0,0,0,0,0,0,0,0,0,0,0.0115,0.0115,0,0.008,0.008,0.0079,0.0056,0.0056,0.0055,0.0055,0.0012,0.0011,0.001,0,0,0,0,0,0,0,0,0,0,0,0,0,0.013,0.013,0.0115,0.0115,0.0115,0.0081,0.008,0.0079,0.0056,0.0056,0.0055,0.0055,0.0012,0.0011,0.001,0,0,0,0,0,0,0,0,0,0,0,0,0,0.0111,0.013,0.0115,0.0099,0.0098,0.0081,0.008,0.0079,0.0056,0.0056,0.0055,0.0055,0.0013,0.0011,0.001,0.0002,0,0,0.0005,0.0004,0,0,0,0,0,0,0,0,0.0112,0.011,0.0102,0.0101,0.0099,0.0073,0.0069,0.0053,0.0056,0.0071,0.0055,0.0055,0.0032,0.0029,0.0021,-0.0,-0.0002,0.0004,0.0003,0.0003,0.0002,0,0,0,0,0,0,0,0.0114,0.0112,0.01,0.0102,0.01,0.0083,0.0081,0.0066,0.0052,0.0069,0.0068,0.0065,0.0031,0.0023,0.002,-0.0003,0.0004,0.0003,0.0002,0.0001,-0.0016,-0.0016,0,0,0,0,0,0,0.0122,0.0113,0.0102,0.01,0.0106,0.0083,0.008,0.0081,0.0052,0.0048,0.0066,0.0065,0.0026,0.0022,0.0019,0.0034,0.0003,0.0001,0.0,-0.0017,-0.0016,-0.0016,0,0,0,0,0,0,0.0122,0.0121,0.0103,0.0106,0.0103,0.0084,0.0084,0.008,0.0077,0.0049,0.0045,0.0067,0.0026,0.0021,0.0016,0.0031,0.0001,-0.0001,-0.0017,-0.0017,-0.0016,0.0048,0,0,0,0,0,0,0.0123,0.0122,0.0126,0.0107,0.0103,0.0101,0.0084,0.0079,0.0076,0.0074,0.0049,0.0045,0.0025,0.0019,0.0015,0.0028,-0.0002,-0.0018,-0.0017,-0.0016,0.0045,0.0051,0.0055,0,0,0,0,0,0.0123,0.0132,0.0127,0.0125,0.011,0.0102,0.0098,0.0083,0.0076,0.0079,0.0065,0.0046,0.0022,0.0018,0.0013,0.0027,-0.0018,-0.0017,-0.0016,0.0043,0.0049,0.0055,0,0,0,0,0,0,0.0139,0.013,0.0124,0.0129,0.012,0.0098,0.0101,0.0089,0.0079,0.008,0.0053,0.0048,0.0048,0.0028,0.0025,0.0023,-0.0002,-0.0002,0.0045,0.0051,0.0056,0.0074,-0.0004,0,0,0,0,0,0.0146,0.0153,0.0137,0.0143,0.014,0.0122,0.0117,0.0108,0.0096,0.0091,0.0075,0.0058,0.0047,0.0043,0.0027,0.0028,0.0003,0.0032,0.0038,0.0042,0.0053,0.0029,0.0033,-0.0012,-0.0012,-0.0012,0,0,0.0154,0.015,0.0153,0.0147,0.0139,0.0146,0.0119,0.0119,0.0129,0.0089,0.0098,0.0075,0.0051,0.0053,0.0051,0.0039,0.004,0.0044,0.0048,0.0057,0.0031,0.0035,0.0039,-0.0011,-0.0011,-0.0011,0,0,0.0176,0.0171,0.0184,0.0182,0.0176,0.0167,0.0171,0.0156,0.0153,0.0156,0.0131,0.0121,0.0103,0.0091,0.0082,0.0106,0.0067,0.0097,0.0141,0.0118,0.0121,0.0124,0.0092,0.0091,0.0102,0.0102,0.0102,0,0.0187,0.0203,0.0186,0.0199,0.0206,0.0182,0.0201,0.0195,0.0181,0.0188,0.017,0.0149,0.0124,0.013,0.0137,0.0119,0.0094,0.0121,0.0125,0.0128,0.013,0.0095,0.0094,0.0105,0.0105,0.0104,0.0104,0,0.0217,0.0233,0.0242,0.0255,0.0258,0.0271,0.0262,0.0269,0.0263,0.0254,0.0257,0.0221,0.0212,0.0197,0.0175,0.018,0.0154,0.0134,0.0112,0.0138,0.01,0.0098,0.011,0.0109,0.0108,0.0107,0,0,0.024,0.0261,0.0267,0.0288,0.0291,0.0302,0.0323,0.0337,0.036,0.0336,0.0361,0.0329,0.0306,0.0294,0.0259,0.0236,0.022,0.0196,0.0193,0.0169,0.0161,0.0139,0.0133,0.02,0.02,0.02,0.0126,0,0.0273,0.0315,0.0315,0.0363,0.0386,0.0381,0.041,0.0419,0.0414,0.043,0.0394,0.0399,0.0344,0.0344,0.0312,0.0248,0.0218,0.0242,0.0135,0.0132,0.0113,0.0131,0.02,0.0124,0.0124,0.0123,0.0123,0,0.0306,0.0334,0.0386,0.0434,0.0445,0.047,0.0515,0.0539,0.0547,0.0546,0.0533,0.0498,0.0471,0.0419,0.0321,0.0339,0.026,0.0199,0.0195,0.0153,0.0106,0.0093,0.0118,0.0118,0.0119,0.0119,0.0119,0,0.0337,0.0386,0.0436,0.045,0.0495,0.0527,0.0556,0.0576,0.0617,0.0622,0.0646,0.0588,0.058,0.0475,0.0347,0.0337,0.023,0.0198,0.01,0.0096,0.0109,0.0107,0.0128,0.0128,0.0129,0.0129,0.0129,0,0.0372,0.0413,0.0459,0.0486,0.0566,0.0577,0.0656,0.0674,0.0713,0.0773,0.0715,0.0735,0.0595,0.0514,0.0379,0.0236,0.0252,0.0114,0.0082,0.0136,0.0138,0.0107,0.0105,0.0126,0.0127,0.0127,0.0128,0,0.0396,0.0424,0.0488,0.0551,0.0583,0.0641,0.0735,0.0788,0.0817,0.0892,0.0904,0.0854,0.075,0.059,0.0418,0.0294,0.0146,0.0087,0.0159,0.013,0.0017,0.0019,-0.0025,-0.0026,-0.0027,-0.0028,-0.0029,0,0.0409,0.0446,0.054,0.0591,0.0624,0.0714,0.0786,0.0843,0.09,0.0963,0.1001,0.0933,0.0873,0.0623,0.0437,0.0176,0.013,0.0043,0.0026,0.0031,0.0004,0.0008,0.0012,-0.003,-0.0031,-0.0031,-0.0031,0,0.0438,0.0474,0.0529,0.0637,0.072,0.0822,0.0916,0.097,0.1046,0.1074,0.1088,0.0968,0.085,0.0635,0.0433,0.0242,0.0094,0.0031,0.0031,0.0014,0.0023,-0.0002,0.0003,-0.0035,-0.0035,-0.0034,-0.0034,0,0.0462,0.0504,0.0582,0.0679,0.079,0.0896,0.0946,0.102,0.1087,0.1143,0.1143,0.102,0.0948,0.0669,0.0484,0.0294,0.0234,0.0152,0.0145,0.0147,0.0209,0.0246,0.0238,0,0,0,0,0,0.0482,0.053,0.0617,0.0726,0.0837,0.0906,0.1025,0.1066,0.1139,0.1158,0.1154,0.1042,0.0792,0.0687,0.0493,0.0436,0.0182,0.0199,0.008,-0.0056,-0.0051,-0.0012,0,0,0,0,0,0,0.0492,0.057,0.0613,0.0753,0.0833,0.0964,0.1045,0.1092,0.1098,0.1137,0.1009,0.0969,0.0722,0.0902,0.0483,0.0428,0.0319,0.009,0.0084,-0.0058,-0.0054,-0.0051,-0.0008,0,0,0,0,0]}]]